Regional Weather Roundup
Issued by NWS

Home | Current Version | Previous Version | Text Only | Print | Product List | Glossary Off
Versions: 1 2 3 4 5 6 7 8 9 10 11 12 13 14 15 16 17 18 19 20 21 22 23 24 25 26 27 28 29 30 31 32 33 34 35 36 37 38 39 40 41 42 43 44 45 46 47 48 49 50

000
ASUS43 KTOP 051559
RWRKS

WEATHER ROUNDUP FOR KANSAS
NATIONAL WEATHER SERVICE GOODLAND KS
1000 AM CST MON DEC 05 2016

NOTE:  "FAIR" INDICATES FEW OR NO CLOUDS BELOW 12,000 FEET WITH NO
SIGNIFICANT WEATHER AND/OR OBSTRUCTIONS TO VISIBILITY.

KSZ001>006-013>018-027>032-041>047-051700-
NORTHWEST KANSAS

CITY           SKY/WX    TMP DP  RH WIND       PRES   REMARKS
GOODLAND       CLOUDY    42  19  39 NW6       29.56S
HILL CITY      CLOUDY    41  27  57 S13       29.60F
RUSSELL        SUNNY     44  32  62 S22       29.63F
$$

KSZ061>065-074>080-084>089-051700-
SOUTHWEST KANSAS

CITY           SKY/WX    TMP DP  RH WIND       PRES   REMARKS
DODGE CITY     SUNNY     41  30  65 S21       29.65F
ELKHART          N/A     41  22  47 W8          N/A
GARDEN CITY    SUNNY     38  29  70 SW10      29.61S WCI  31
LIBERAL        SUNNY     39  30  70 SW13      29.63F WCI  32
$$

KSZ066>073-081>083-090>101-051700-
SOUTHEAST KANSAS

CITY           SKY/WX    TMP DP  RH WIND       PRES   REMARKS
CHANUTE        FOG       39  38  96 S9        29.90F VSB 1/4
COFFEYVILLE    MOSUNNY   40  40 100 S3        29.92S
HUTCHINSON     SUNNY     42  36  79 S16       29.76F
MEDICINE LODGE   N/A     40  34  79 S14G23    29.76F WCI  32
PARSONS        MOSUNNY   42  39  89 VRB5      29.92S
WICHITA INTL   MOSUNNY   43  38  82 S18G24    29.80F
WICHITA JABRA  SUNNY     42  39  89 S14       29.80F
WINFIELD       SUNNY     44  40  85 S15       29.86F
$$

KSZ007>012-019>026-033>040-048>060-102>105-051700-
NORTHEAST KANSAS

CITY           SKY/WX    TMP DP  RH WIND       PRES   REMARKS
EMPORIA        MOSUNNY   38  37  97 S14       29.83S WCI  30
LAWRENCE       SUNNY     40  39  97 SE14      29.87F WCI  32
MANHATTAN      SUNNY     46  34  62 S10       29.79S
OLATHE IND     PTSUNNY   40  39  97 S15       29.89S WCI  32
OLATHE EXE     CLOUDY    39  37  92 S12G21    29.89F FOG     WCI  32
SALINA         SUNNY     44  34  67 S17G24    29.75S
TOPEKA BILLARD SUNNY     43  37  79 S13       29.84F
TOPEKA FORBES  SUNNY     43  38  82 S14       29.83F
$$



USA.gov is the U.S. government's official web portal to all federal, state and local government web resources and services.